Time,TemperatureF,DewpointF,PressureIn,WindDirection,WindDirectionDegrees,WindSpeedMPH,WindSpeedGustMPH,Humidity,HourlyPrecipIn,Conditions,Clouds,dailyrainin,SoftwareType,DateUTC
2013-04-01 00:00:00,39.0,27.1,29.67,North,0,0.0,0.0,62,0.04,,OVC031,0.08,VWS V13.01,2013-04-01 04:00:00,
2013-04-01 00:01:00,39.0,27.1,29.67,North,0,0.0,0.0,62,0.04,,OVC031,0.00,VWS V13.01,2013-04-01 04:01:00,
2013-04-01 00:06:00,39.0,27.5,29.67,North,0,0.0,0.0,63,0.12,,OVC031,0.08,VWS V13.01,2013-04-01 04:06:00,
2013-04-01 00:11:00,39.0,27.5,29.67,North,0,0.0,0.0,63,0.12,,OVC031,0.08,VWS V13.01,2013-04-01 04:11:00,
2013-04-01 00:12:00,39.0,27.5,29.67,North,0,0.0,0.0,63,0.12,,OVC031,0.08,VWS V13.01,2013-04-01 04:12:00,
2013-04-01 00:17:00,38.8,27.3,29.67,North,0,0.0,0.0,63,0.12,,OVC031,0.08,VWS V13.01,2013-04-01 04:17:00,
2013-04-01 00:22:00,38.8,27.3,29.67,North,0,0.0,0.0,63,0.12,,OVC031,0.08,VWS V13.01,2013-04-01 04:22:00,
2013-04-01 00:27:00,38.8,27.7,29.67,North,0,0.0,0.0,64,0.16,,OVC031,0.12,VWS V13.01,2013-04-01 04:27:00,
2013-04-01 00:32:00,38.8,27.7,29.67,North,0,0.0,0.0,64,0.16,,OVC028,0.12,VWS V13.01,2013-04-01 04:32:00,
2013-04-01 00:37:00,38.8,27.7,29.67,North,0,0.0,0.0,64,0.16,,OVC028,0.16,VWS V13.01,2013-04-01 04:37:00,
2013-04-01 00:42:00,38.7,27.5,29.67,North,0,0.0,0.0,64,0.16,,OVC028,0.16,VWS V13.01,2013-04-01 04:42:00,
2013-04-01 00:48:00,38.7,27.5,29.67,North,0,0.0,0.0,64,0.16,,OVC028,0.16,VWS V13.01,2013-04-01 04:48:00,
2013-04-01 00:53:00,38.5,27.4,29.67,North,0,0.0,0.0,64,0.16,,OVC028,0.16,VWS V13.01,2013-04-01 04:53:00,
2013-04-01 00:58:00,38.5,27.4,29.64,North,0,0.0,0.0,64,0.16,,OVC028,0.16,VWS V13.01,2013-04-01 04:58:00,
2013-04-01 01:03:00,38.5,27.8,29.64,North,0,0.0,0.0,65,0.16,,OVC028,0.16,VWS V13.01,2013-04-01 05:03:00,
2013-04-01 01:08:00,38.3,27.6,29.64,North,0,0.0,0.0,65,0.16,,OVC028,0.16,VWS V13.01,2013-04-01 05:08:00,
2013-04-01 01:13:00,38.3,27.6,29.64,North,0,0.0,0.0,65,0.12,,OVC028,0.20,VWS V13.01,2013-04-01 05:13:00,
2013-04-01 01:18:00,38.1,27.4,29.64,North,0,0.0,0.0,65,0.12,,OVC028,0.20,VWS V13.01,2013-04-01 05:18:00,
2013-04-01 01:23:00,38.1,27.4,29.64,North,0,0.0,0.0,65,0.12,,OVC028,0.20,VWS V13.01,2013-04-01 05:23:00,
2013-04-01 01:28:00,37.9,27.2,29.64,North,0,0.0,0.0,65,0.12,,OVC028,0.20,VWS V13.01,2013-04-01 05:28:00,
2013-04-01 01:33:00,37.9,27.2,29.64,North,0,0.0,0.0,65,0.08,,OVC030,0.20,VWS V13.01,2013-04-01 05:33:00,
2013-04-01 01:38:00,37.9,27.2,29.61,North,0,0.0,0.0,65,0.08,,OVC030,0.20,VWS V13.01,2013-04-01 05:38:00,
2013-04-01 01:43:00,37.9,27.2,29.61,North,0,0.0,0.0,65,0.04,,OVC030,0.20,VWS V13.01,2013-04-01 05:43:00,
2013-04-01 01:48:00,37.9,27.6,29.61,North,0,0.0,0.0,66,0.04,,OVC030,0.20,VWS V13.01,2013-04-01 05:48:00,
2013-04-01 01:53:00,37.8,27.4,29.61,North,0,0.0,0.0,66,0.04,,OVC030,0.20,VWS V13.01,2013-04-01 05:53:00,
2013-04-01 01:58:00,37.6,27.3,29.61,North,0,0.0,0.0,66,0.08,,OVC030,0.24,VWS V13.01,2013-04-01 05:58:00,
2013-04-01 02:03:00,37.6,27.3,29.61,North,0,0.0,0.0,66,0.08,,OVC030,0.24,VWS V13.01,2013-04-01 06:03:00,
2013-04-01 02:08:00,37.4,27.1,29.61,North,0,0.0,0.0,66,0.08,,OVC030,0.24,VWS V13.01,2013-04-01 06:08:00,
2013-04-01 02:13:00,37.4,27.1,29.61,North,0,0.0,0.0,66,0.08,,BKN038,0.24,VWS V13.01,2013-04-01 06:13:00,
2013-04-01 02:19:00,37.4,27.1,29.61,North,0,0.0,0.0,66,0.08,,BKN038,0.24,VWS V13.01,2013-04-01 06:19:00,
2013-04-01 02:24:00,37.2,27.3,29.58,North,0,0.0,0.0,67,0.04,,BKN038,0.24,VWS V13.01,2013-04-01 06:24:00,
2013-04-01 02:29:00,37.2,27.3,29.58,North,0,0.0,0.0,67,0.04,,BKN038,0.24,VWS V13.01,2013-04-01 06:29:00,
2013-04-01 02:34:00,37.0,27.1,29.58,North,0,0.0,0.0,67,0.04,,OVC028,0.24,VWS V13.01,2013-04-01 06:34:00,
2013-04-01 02:39:00,37.0,27.1,29.58,North,0,0.0,0.0,67,0.04,,OVC028,0.24,VWS V13.01,2013-04-01 06:39:00,
2013-04-01 02:44:00,37.0,27.1,29.58,North,0,0.0,0.0,67,0.04,,OVC028,0.24,VWS V13.01,2013-04-01 06:44:00,
2013-04-01 02:49:00,36.9,26.9,29.58,North,0,0.0,0.0,67,0.04,,OVC028,0.24,VWS V13.01,2013-04-01 06:49:00,
2013-04-01 02:54:00,36.9,27.3,29.58,North,0,0.0,0.0,68,0.04,,OVC029,0.24,VWS V13.01,2013-04-01 06:54:00,
2013-04-01 02:59:00,36.9,27.3,29.58,North,0,0.0,0.0,68,0.04,,OVC029,0.24,VWS V13.01,2013-04-01 06:59:00,
2013-04-01 03:04:00,36.7,27.1,29.58,North,0,0.0,0.0,68,0.00,,OVC029,0.24,VWS V13.01,2013-04-01 07:04:00,
2013-04-01 03:09:00,36.7,27.1,29.58,North,0,0.0,0.0,68,0.00,,OVC029,0.24,VWS V13.01,2013-04-01 07:09:00,
2013-04-01 03:14:00,36.7,27.5,29.58,North,0,0.0,0.0,69,0.00,,OVC029,0.24,VWS V13.01,2013-04-01 07:14:00,
2013-04-01 03:19:00,36.7,27.5,29.58,North,0,0.0,0.0,69,0.00,,OVC029,0.24,VWS V13.01,2013-04-01 07:19:00,
2013-04-01 03:24:00,36.7,27.5,29.58,North,0,0.0,0.0,69,0.00,,OVC029,0.24,VWS V13.01,2013-04-01 07:24:00,
2013-04-01 03:29:00,36.5,27.3,29.58,North,0,0.0,0.0,69,0.00,,OVC029,0.24,VWS V13.01,2013-04-01 07:29:00,
2013-04-01 03:34:00,36.5,27.3,29.58,North,0,0.0,0.0,69,0.04,,OVC044,0.28,VWS V13.01,2013-04-01 07:34:00,
2013-04-01 03:39:00,36.5,27.7,29.55,North,0,0.0,0.0,70,0.04,,OVC044,0.28,VWS V13.01,2013-04-01 07:39:00,
2013-04-01 03:44:00,36.3,27.5,29.55,North,0,0.0,0.0,70,0.04,,OVC044,0.28,VWS V13.01,2013-04-01 07:44:00,
2013-04-01 03:49:00,36.3,27.5,29.55,North,0,0.0,0.0,70,0.04,,OVC044,0.28,VWS V13.01,2013-04-01 07:49:00,
2013-04-01 03:54:00,36.3,27.5,29.55,North,0,0.0,0.0,70,0.04,,OVC031,0.28,VWS V13.01,2013-04-01 07:54:00,
2013-04-01 03:59:00,36.3,27.5,29.55,North,0,0.0,0.0,70,0.04,,OVC031,0.28,VWS V13.01,2013-04-01 07:59:00,
2013-04-01 04:04:00,36.3,27.5,29.55,North,0,0.0,0.0,70,0.04,,OVC031,0.28,VWS V13.01,2013-04-01 08:04:00,
2013-04-01 04:10:00,36.3,27.5,29.55,North,0,0.0,0.0,70,0.04,,OVC031,0.28,VWS V13.01,2013-04-01 08:10:00,
2013-04-01 04:15:00,36.3,27.8,29.55,North,0,0.0,0.0,71,0.04,,OVC031,0.28,VWS V13.01,2013-04-01 08:15:00,
2013-04-01 04:20:00,36.3,27.8,29.55,North,0,0.0,0.0,71,0.04,,OVC031,0.28,VWS V13.01,2013-04-01 08:20:00,
2013-04-01 04:25:00,36.1,27.7,29.55,North,0,0.0,0.0,71,0.04,,OVC031,0.28,VWS V13.01,2013-04-01 08:25:00,
2013-04-01 04:30:00,36.1,27.7,29.55,North,0,0.0,0.0,71,0.04,,OVC031,0.28,VWS V13.01,2013-04-01 08:30:00,
2013-04-01 04:35:00,36.1,27.7,29.55,North,0,0.0,0.0,71,0.04,,OVC029,0.28,VWS V13.01,2013-04-01 08:35:00,
2013-04-01 04:40:00,36.1,27.7,29.55,North,0,0.0,0.0,71,0.04,,OVC029,0.28,VWS V13.01,2013-04-01 08:40:00,
2013-04-01 04:45:00,36.1,27.7,29.55,North,0,0.0,0.0,71,0.00,,OVC029,0.28,VWS V13.01,2013-04-01 08:45:00,
2013-04-01 04:50:00,36.1,27.7,29.55,North,0,0.0,0.0,71,0.00,,OVC029,0.28,VWS V13.01,2013-04-01 08:50:00,
2013-04-01 04:55:00,36.1,27.7,29.55,North,0,0.0,0.0,71,0.00,,OVC011,0.28,VWS V13.01,2013-04-01 08:55:00,
2013-04-01 05:00:00,36.1,28.0,29.55,North,0,0.0,0.0,72,0.00,,OVC011,0.28,VWS V13.01,2013-04-01 09:00:00,
2013-04-01 05:05:00,36.1,28.0,29.55,North,0,0.0,0.0,72,0.00,,OVC011,0.28,VWS V13.01,2013-04-01 09:05:00,
2013-04-01 05:10:00,36.1,28.0,29.55,North,0,0.0,0.0,72,0.00,,OVC029,0.28,VWS V13.01,2013-04-01 09:10:00,
2013-04-01 05:15:00,36.1,28.0,29.55,North,0,0.0,0.0,72,0.00,,OVC029,0.28,VWS V13.01,2013-04-01 09:15:00,
2013-04-01 05:20:00,36.1,28.0,29.55,North,0,0.0,0.0,72,0.00,,OVC029,0.28,VWS V13.01,2013-04-01 09:20:00,
2013-04-01 05:25:00,36.1,28.0,29.55,North,0,0.0,0.0,72,0.00,,OVC029,0.28,VWS V13.01,2013-04-01 09:25:00,
2013-04-01 05:30:00,36.1,28.0,29.55,North,0,0.0,0.0,72,0.00,,OVC029,0.28,VWS V13.01,2013-04-01 09:30:00,
2013-04-01 05:35:00,36.1,28.0,29.55,North,0,0.0,0.0,72,0.00,,OVC013,0.28,VWS V13.01,2013-04-01 09:35:00,
2013-04-01 05:40:00,36.1,28.0,29.55,North,0,0.0,0.0,72,0.00,,OVC013,0.28,VWS V13.01,2013-04-01 09:40:00,
2013-04-01 05:45:00,36.1,28.0,29.55,North,0,0.0,0.0,72,0.00,,OVC013,0.28,VWS V13.01,2013-04-01 09:45:00,
2013-04-01 05:50:00,36.1,28.0,29.55,North,0,0.0,0.0,72,0.00,,OVC013,0.28,VWS V13.01,2013-04-01 09:50:00,
2013-04-01 05:55:00,36.1,28.0,29.55,North,0,0.0,0.0,72,0.00,,OVC013,0.28,VWS V13.01,2013-04-01 09:55:00,
2013-04-01 06:00:00,36.1,28.0,29.55,North,0,0.0,0.0,72,0.00,,OVC013,0.28,VWS V13.01,2013-04-01 10:00:00,
2013-04-01 06:05:00,36.0,27.8,29.55,North,0,0.0,0.0,72,0.00,,OVC013,0.28,VWS V13.01,2013-04-01 10:05:00,
2013-04-01 06:10:00,36.0,28.2,29.58,North,0,0.0,0.0,73,0.00,,OVC013,0.28,VWS V13.01,2013-04-01 10:10:00,
2013-04-01 06:15:00,36.0,28.2,29.58,North,0,0.0,0.0,73,0.00,,OVC013,0.28,VWS V13.01,2013-04-01 10:15:00,
2013-04-01 06:20:00,36.1,28.3,29.58,North,0,0.0,0.0,73,0.00,,OVC013,0.28,VWS V13.01,2013-04-01 10:20:00,
2013-04-01 06:25:00,36.1,28.3,29.58,North,0,0.0,0.0,73,0.00,,OVC013,0.28,VWS V13.01,2013-04-01 10:25:00,
2013-04-01 06:30:00,36.1,28.3,29.58,North,0,0.0,0.0,73,0.00,,OVC013,0.28,VWS V13.01,2013-04-01 10:30:00,
2013-04-01 06:35:00,36.1,28.3,29.58,North,0,0.0,0.0,73,0.00,,OVC013,0.28,VWS V13.01,2013-04-01 10:35:00,
2013-04-01 06:40:00,36.1,28.3,29.58,North,0,0.0,0.0,73,0.00,,OVC013,0.28,VWS V13.01,2013-04-01 10:40:00,
2013-04-01 06:45:00,36.1,28.3,29.58,North,0,0.0,0.0,73,0.00,,OVC013,0.28,VWS V13.01,2013-04-01 10:45:00,
2013-04-01 06:50:00,36.1,28.3,29.58,North,0,0.0,0.0,73,0.00,,OVC013,0.28,VWS V13.01,2013-04-01 10:50:00,
2013-04-01 06:55:00,36.1,28.3,29.58,North,0,0.0,0.0,73,0.00,,OVC013,0.28,VWS V13.01,2013-04-01 10:55:00,
2013-04-01 07:00:00,36.1,28.3,29.58,North,0,0.0,0.0,73,0.00,,OVC013,0.28,VWS V13.01,2013-04-01 11:00:00,
2013-04-01 07:05:00,36.3,28.5,29.58,North,0,0.0,0.0,73,0.00,,OVC013,0.28,VWS V13.01,2013-04-01 11:05:00,
2013-04-01 07:10:00,36.3,28.5,29.58,North,0,0.0,0.0,73,0.00,,OVC013,0.28,VWS V13.01,2013-04-01 11:10:00,
2013-04-01 07:15:00,36.3,28.8,29.58,North,0,0.0,0.0,74,0.00,,OVC013,0.28,VWS V13.01,2013-04-01 11:15:00,
2013-04-01 07:20:00,36.5,29.0,29.58,North,0,0.0,0.0,74,0.00,,OVC013,0.28,VWS V13.01,2013-04-01 11:20:00,
2013-04-01 07:25:00,36.7,29.2,29.58,North,0,0.0,0.0,74,0.00,,OVC013,0.28,VWS V13.01,2013-04-01 11:25:00,
2013-04-01 07:30:00,36.9,29.4,29.58,North,0,0.0,0.0,74,0.00,,OVC013,0.28,VWS V13.01,2013-04-01 11:30:00,
2013-04-01 07:35:00,37.0,29.5,29.58,North,0,0.0,0.0,74,0.00,,OVC032,0.28,VWS V13.01,2013-04-01 11:35:00,
2013-04-01 07:41:00,37.4,29.9,29.58,North,0,0.0,0.0,74,0.00,,OVC032,0.28,VWS V13.01,2013-04-01 11:41:00,
2013-04-01 07:46:00,37.6,30.1,29.58,North,0,0.0,0.0,74,0.00,,OVC032,0.28,VWS V13.01,2013-04-01 11:46:00,
2013-04-01 07:51:00,37.6,30.1,29.58,North,0,0.0,0.0,74,0.00,,OVC032,0.28,VWS V13.01,2013-04-01 11:51:00,
2013-04-01 07:56:00,37.6,30.1,29.58,North,0,0.0,0.0,74,0.00,,OVC032,0.28,VWS V13.01,2013-04-01 11:56:00,
2013-04-01 08:01:00,37.6,30.1,29.58,North,0,0.0,0.0,74,0.00,,OVC032,0.28,VWS V13.01,2013-04-01 12:01:00,
2013-04-01 08:06:00,37.9,30.4,29.58,North,0,0.0,0.0,74,0.00,,OVC032,0.28,VWS V13.01,2013-04-01 12:06:00,
2013-04-01 08:11:00,38.1,30.9,29.58,North,0,0.0,0.0,75,0.00,,OVC032,0.28,VWS V13.01,2013-04-01 12:11:00,
2013-04-01 08:16:00,38.1,30.9,29.58,North,0,0.0,0.0,75,0.00,,OVC032,0.28,VWS V13.01,2013-04-01 12:16:00,
2013-04-01 08:21:00,38.7,31.4,29.58,North,0,0.0,0.0,75,0.00,,OVC032,0.28,VWS V13.01,2013-04-01 12:21:00,
2013-04-01 08:26:00,38.8,31.6,29.58,North,0,0.0,0.0,75,0.00,,OVC032,0.28,VWS V13.01,2013-04-01 12:26:00,
2013-04-01 08:31:00,39.0,31.8,29.58,North,0,0.0,0.0,75,0.00,,OVC032,0.28,VWS V13.01,2013-04-01 12:31:00,
2013-04-01 08:36:00,39.6,32.3,29.58,North,0,0.0,0.0,75,0.00,,OVC026,0.28,VWS V13.01,2013-04-01 12:36:00,
2013-04-01 08:41:00,39.4,32.1,29.55,North,0,0.0,0.0,75,0.00,,OVC026,0.28,VWS V13.01,2013-04-01 12:41:00,
2013-04-01 08:46:00,39.6,32.3,29.55,North,0,0.0,0.0,75,0.00,,OVC026,0.28,VWS V13.01,2013-04-01 12:46:00,
2013-04-01 08:51:00,40.1,32.8,29.55,North,0,0.0,0.0,75,0.00,,OVC026,0.28,VWS V13.01,2013-04-01 12:51:00,
2013-04-01 08:57:00,40.6,33.3,29.55,North,0,0.0,0.0,75,0.00,,OVC026,0.28,VWS V13.01,2013-04-01 12:57:00,
2013-04-01 09:02:00,40.8,33.5,29.55,North,0,0.0,0.0,75,0.00,,OVC026,0.28,VWS V13.01,2013-04-01 13:02:00,
2013-04-01 09:07:00,41.5,34.2,29.55,North,0,0.0,0.0,75,0.00,,OVC026,0.28,VWS V13.01,2013-04-01 13:07:00,
2013-04-01 09:12:00,42.3,35.2,29.55,North,0,0.0,0.0,76,0.00,,OVC026,0.28,VWS V13.01,2013-04-01 13:12:00,
2013-04-01 09:17:00,42.8,35.4,29.55,North,0,0.0,0.0,75,0.00,,OVC026,0.28,VWS V13.01,2013-04-01 13:17:00,
2013-04-01 09:22:00,43.0,35.6,29.55,North,0,0.0,0.0,75,0.00,,OVC026,0.28,VWS V13.01,2013-04-01 13:22:00,
2013-04-01 09:27:00,43.5,36.1,29.55,North,0,0.0,0.0,75,0.00,,OVC026,0.28,VWS V13.01,2013-04-01 13:27:00,
2013-04-01 09:32:00,44.1,37.0,29.55,North,0,0.0,0.0,76,0.00,,OVC006,0.28,VWS V13.01,2013-04-01 13:32:00,
2013-04-01 09:37:00,45.3,38.2,29.55,North,0,0.0,0.0,76,0.00,,OVC006,0.28,VWS V13.01,2013-04-01 13:37:00,
2013-04-01 09:42:00,46.4,39.3,29.55,North,0,0.0,0.0,76,0.00,,OVC006,0.28,VWS V13.01,2013-04-01 13:42:00,
2013-04-01 09:47:00,46.8,39.3,29.55,North,0,0.0,0.0,75,0.00,,OVC006,0.28,VWS V13.01,2013-04-01 13:47:00,
2013-04-01 09:52:00,46.9,39.4,29.55,North,0,0.0,0.0,75,0.00,,OVC009,0.28,VWS V13.01,2013-04-01 13:52:00,
2013-04-01 09:57:00,47.3,39.5,29.55,North,0,0.0,0.0,74,0.00,,OVC009,0.28,VWS V13.01,2013-04-01 13:57:00,
2013-04-01 10:02:00,47.7,39.8,29.55,North,0,0.0,0.0,74,0.00,,OVC009,0.28,VWS V13.01,2013-04-01 14:02:00,
2013-04-01 10:07:00,48.4,40.5,29.55,North,0,0.0,0.0,74,0.00,,OVC009,0.28,VWS V13.01,2013-04-01 14:07:00,
2013-04-01 10:12:00,47.8,39.6,29.52,North,0,0.0,0.0,73,0.00,,OVC009,0.28,VWS V13.01,2013-04-01 14:12:00,
2013-04-01 10:17:00,47.1,37.8,29.52,North,0,0.0,0.0,70,0.00,,OVC009,0.28,VWS V13.01,2013-04-01 14:17:00,
2013-04-01 10:22:00,46.9,35.4,29.52,North,0,0.0,0.0,64,0.00,,OVC009,0.28,VWS V13.01,2013-04-01 14:22:00,
2013-04-01 10:28:00,46.2,32.7,29.52,North,0,0.0,0.0,59,0.00,,OVC009,0.28,VWS V13.01,2013-04-01 14:28:00,
2013-04-01 10:33:00,46.4,32.4,29.52,North,0,0.0,0.0,58,0.00,,BKN011,0.28,VWS V13.01,2013-04-01 14:33:00,
2013-04-01 10:38:00,46.2,31.8,29.52,North,0,0.0,0.0,57,0.00,,BKN011,0.28,VWS V13.01,2013-04-01 14:38:00,
2013-04-01 10:43:00,45.9,31.1,29.52,North,0,0.0,0.0,56,0.00,,BKN011,0.28,VWS V13.01,2013-04-01 14:43:00,
2013-04-01 10:48:00,45.9,31.1,29.52,North,0,0.0,0.0,56,0.00,,BKN011,0.28,VWS V13.01,2013-04-01 14:48:00,
2013-04-01 10:53:00,46.6,31.7,29.52,North,0,0.0,0.0,56,0.00,,BKN013,0.28,VWS V13.01,2013-04-01 14:53:00,
2013-04-01 10:58:00,47.8,33.4,29.52,North,0,0.0,0.0,57,0.00,,BKN013,0.28,VWS V13.01,2013-04-01 14:58:00,
2013-04-01 11:03:00,48.9,33.9,29.52,North,0,0.0,0.0,56,0.00,,BKN013,0.28,VWS V13.01,2013-04-01 15:03:00,
2013-04-01 11:08:00,49.8,33.9,29.52,North,0,0.0,0.0,54,0.00,,BKN013,0.28,VWS V13.01,2013-04-01 15:08:00,
2013-04-01 11:13:00,50.2,32.3,29.52,North,0,0.0,0.0,50,0.00,,BKN013,0.28,VWS V13.01,2013-04-01 15:13:00,
2013-04-01 11:18:00,50.9,31.9,29.52,North,0,0.0,0.0,48,0.00,,BKN013,0.28,VWS V13.01,2013-04-01 15:18:00,
2013-04-01 11:23:00,52.0,32.4,29.52,North,0,0.0,0.0,47,0.00,,BKN013,0.28,VWS V13.01,2013-04-01 15:23:00,
2013-04-01 11:28:00,52.7,30.3,29.52,North,0,0.0,0.0,42,0.00,,BKN013,0.28,VWS V13.01,2013-04-01 15:28:00,
2013-04-01 11:33:00,52.9,28.6,29.52,North,0,0.0,0.0,39,0.00,,OVC017,0.28,VWS V13.01,2013-04-01 15:33:00,
2013-04-01 11:38:00,52.3,28.8,29.52,North,0,0.0,0.0,40,0.00,,OVC017,0.28,VWS V13.01,2013-04-01 15:38:00,
2013-04-01 11:43:00,52.3,28.1,29.52,North,0,0.0,0.0,39,0.00,,OVC017,0.28,VWS V13.01,2013-04-01 15:43:00,
2013-04-01 11:48:00,52.5,28.3,29.52,North,0,0.0,0.0,39,0.00,,OVC017,0.28,VWS V13.01,2013-04-01 15:48:00,
2013-04-01 11:53:00,52.5,27.7,29.52,North,0,0.0,0.0,38,0.00,,BKN028,0.28,VWS V13.01,2013-04-01 15:53:00,
2013-04-01 11:58:00,52.9,28.0,29.52,North,0,0.0,0.0,38,0.00,,BKN028,0.28,VWS V13.01,2013-04-01 15:58:00,
2013-04-01 12:03:00,52.9,28.0,29.52,North,0,0.0,0.0,38,0.00,,BKN028,0.28,VWS V13.01,2013-04-01 16:03:00,
2013-04-01 12:09:00,53.2,28.3,29.49,North,0,0.0,0.0,38,0.00,,BKN028,0.28,VWS V13.01,2013-04-01 16:09:00,
2013-04-01 12:14:00,53.4,28.5,29.49,North,0,0.0,0.0,38,0.00,,BKN028,0.28,VWS V13.01,2013-04-01 16:14:00,
2013-04-01 12:19:00,54.1,28.5,29.49,North,0,0.0,0.0,37,0.00,,BKN028,0.28,VWS V13.01,2013-04-01 16:19:00,
2013-04-01 12:24:00,54.9,29.1,29.49,North,0,0.0,0.0,37,0.00,,BKN028,0.28,VWS V13.01,2013-04-01 16:24:00,
2013-04-01 12:29:00,54.3,28.0,29.49,North,0,0.0,0.0,36,0.00,,BKN028,0.28,VWS V13.01,2013-04-01 16:29:00,
2013-04-01 12:34:00,53.6,27.3,29.49,North,0,0.0,0.0,36,0.00,,SCT033,0.28,VWS V13.01,2013-04-01 16:34:00,
2013-04-01 12:39:00,53.1,26.8,29.49,North,0,0.0,0.0,36,0.00,,SCT033,0.28,VWS V13.01,2013-04-01 16:39:00,
2013-04-01 12:44:00,53.4,27.1,29.49,North,0,0.0,0.0,36,0.00,,SCT033,0.28,VWS V13.01,2013-04-01 16:44:00,
2013-04-01 12:49:00,53.6,27.3,29.49,North,0,0.0,0.0,36,0.00,,SCT033,0.28,VWS V13.01,2013-04-01 16:49:00,
2013-04-01 12:54:00,53.6,27.3,29.49,North,0,0.0,0.0,36,0.00,,BKN060,0.28,VWS V13.01,2013-04-01 16:54:00,
2013-04-01 12:59:00,54.9,28.4,29.49,North,0,0.0,0.0,36,0.00,,BKN060,0.28,VWS V13.01,2013-04-01 16:59:00,
2013-04-01 13:04:00,56.3,29.0,29.49,North,0,0.0,0.0,35,0.00,,BKN060,0.28,VWS V13.01,2013-04-01 17:04:00,
2013-04-01 13:09:00,56.7,28.6,29.47,North,0,0.0,0.0,34,0.00,,BKN060,0.28,VWS V13.01,2013-04-01 17:09:00,
2013-04-01 13:14:00,56.7,27.2,29.47,North,0,0.0,0.0,32,0.00,,BKN060,0.28,VWS V13.01,2013-04-01 17:14:00,
2013-04-01 13:19:00,56.8,26.5,29.47,North,0,0.0,0.0,31,0.00,,BKN060,0.28,VWS V13.01,2013-04-01 17:19:00,
2013-04-01 13:24:00,56.7,27.2,29.47,North,0,0.0,0.0,32,0.00,,BKN060,0.28,VWS V13.01,2013-04-01 17:24:00,
2013-04-01 13:29:00,55.2,25.9,29.47,North,0,0.0,0.0,32,0.00,,BKN060,0.28,VWS V13.01,2013-04-01 17:29:00,
2013-04-01 13:34:00,54.3,25.9,29.47,North,0,0.0,0.0,33,0.00,,BKN060,0.28,VWS V13.01,2013-04-01 17:34:00,
2013-04-01 13:39:00,53.1,24.7,29.49,North,0,0.0,0.0,33,0.00,,BKN060,0.28,VWS V13.01,2013-04-01 17:39:00,
2013-04-01 13:44:00,50.0,24.1,29.49,North,0,0.0,0.0,36,0.00,,BKN060,0.28,VWS V13.01,2013-04-01 17:44:00,
2013-04-01 13:49:00,47.3,23.0,29.49,North,0,0.0,0.0,38,0.00,,BKN060,0.28,VWS V13.01,2013-04-01 17:49:00,
2013-04-01 13:54:00,45.5,23.2,29.49,North,0,0.0,0.0,41,0.00,,BKN070,0.28,VWS V13.01,2013-04-01 17:54:00,
2013-04-01 13:59:00,44.4,23.3,29.49,North,0,0.0,0.0,43,0.00,,BKN070,0.28,VWS V13.01,2013-04-01 17:59:00,
2013-04-01 14:04:00,43.7,23.2,29.49,North,0,0.0,0.0,44,0.00,,BKN070,0.28,VWS V13.01,2013-04-01 18:04:00,
2013-04-01 14:09:00,43.3,23.4,29.52,North,0,0.0,0.0,45,0.00,,BKN070,0.28,VWS V13.01,2013-04-01 18:09:00,
2013-04-01 14:14:00,43.0,23.1,29.52,North,0,0.0,0.0,45,0.00,,BKN070,0.28,VWS V13.01,2013-04-01 18:14:00,
2013-04-01 14:19:00,42.8,23.5,29.52,North,0,0.0,0.0,46,0.00,,BKN070,0.28,VWS V13.01,2013-04-01 18:19:00,
2013-04-01 14:24:00,42.4,23.6,29.52,North,0,0.0,0.0,47,0.00,,BKN070,0.28,VWS V13.01,2013-04-01 18:24:00,
2013-04-01 14:29:00,42.3,23.5,29.52,North,0,0.0,0.0,47,0.00,,BKN070,0.28,VWS V13.01,2013-04-01 18:29:00,
2013-04-01 14:34:00,42.1,23.8,29.52,North,0,0.0,0.0,48,0.00,,BKN050,0.28,VWS V13.01,2013-04-01 18:34:00,
2013-04-01 14:39:00,42.3,24.5,29.52,North,0,0.0,0.0,49,0.00,,BKN050,0.28,VWS V13.01,2013-04-01 18:39:00,
2013-04-01 14:44:00,42.8,25.0,29.52,North,0,0.0,0.0,49,0.00,,BKN050,0.28,VWS V13.01,2013-04-01 18:44:00,
2013-04-01 14:49:00,42.8,25.0,29.52,North,0,0.0,0.0,49,0.00,,BKN050,0.28,VWS V13.01,2013-04-01 18:49:00,
2013-04-01 14:54:00,43.0,25.1,29.52,North,0,0.0,0.0,49,0.00,,OVC042,0.28,VWS V13.01,2013-04-01 18:54:00,
2013-04-01 14:59:00,43.2,24.8,29.52,North,0,0.0,0.0,48,0.00,,OVC042,0.28,VWS V13.01,2013-04-01 18:59:00,
2013-04-01 15:04:00,43.5,24.6,29.52,North,0,0.0,0.0,47,0.00,,OVC042,0.28,VWS V13.01,2013-04-01 19:04:00,
2013-04-01 15:09:00,44.2,23.7,29.52,North,0,0.0,0.0,44,0.00,,OVC042,0.28,VWS V13.01,2013-04-01 19:09:00,
2013-04-01 15:14:00,45.5,24.3,29.52,North,0,0.0,0.0,43,0.00,,OVC042,0.28,VWS V13.01,2013-04-01 19:14:00,
2013-04-01 15:19:00,46.2,23.2,29.52,North,0,0.0,0.0,40,0.00,,OVC042,0.28,VWS V13.01,2013-04-01 19:19:00,
2013-04-01 15:24:00,46.0,21.9,29.52,North,0,0.0,0.0,38,0.00,,OVC042,0.28,VWS V13.01,2013-04-01 19:24:00,
2013-04-01 15:29:00,45.1,20.4,29.52,North,0,0.0,0.0,37,0.00,,OVC042,0.28,VWS V13.01,2013-04-01 19:29:00,
2013-04-01 15:34:00,44.8,20.7,29.52,North,0,0.0,0.0,38,0.00,,OVC050,0.28,VWS V13.01,2013-04-01 19:34:00,
2013-04-01 15:39:00,44.8,20.7,29.55,North,0,0.0,0.0,38,0.00,,OVC050,0.28,VWS V13.01,2013-04-01 19:39:00,
2013-04-01 15:44:00,44.4,19.1,29.55,North,0,0.0,0.0,36,0.00,,OVC050,0.28,VWS V13.01,2013-04-01 19:44:00,
2013-04-01 15:50:00,43.9,18.0,29.55,North,0,0.0,0.0,35,0.00,,OVC050,0.28,VWS V13.01,2013-04-01 19:50:00,
2013-04-01 15:55:00,43.5,16.3,29.55,North,0,0.0,0.0,33,0.00,,OVC060,0.28,VWS V13.01,2013-04-01 19:55:00,
2013-04-01 16:00:00,43.2,16.0,29.55,North,0,0.0,0.0,33,0.00,,OVC060,0.28,VWS V13.01,2013-04-01 20:00:00,
2013-04-01 16:05:00,42.6,14.8,29.55,North,0,0.0,0.0,32,0.00,,OVC060,0.28,VWS V13.01,2013-04-01 20:05:00,
2013-04-01 16:10:00,41.9,14.2,29.55,North,0,0.0,0.0,32,0.00,,OVC060,0.28,VWS V13.01,2013-04-01 20:10:00,
2013-04-01 16:15:00,41.2,13.6,29.55,North,0,0.0,0.0,32,0.00,,OVC060,0.28,VWS V13.01,2013-04-01 20:15:00,
2013-04-01 16:20:00,40.8,14.0,29.55,North,0,0.0,0.0,33,0.00,,OVC060,0.28,VWS V13.01,2013-04-01 20:20:00,
2013-04-01 16:25:00,40.6,13.8,29.55,North,0,0.0,0.0,33,0.00,,OVC060,0.28,VWS V13.01,2013-04-01 20:25:00,
2013-04-01 16:30:00,40.5,13.6,29.55,North,0,0.0,0.0,33,0.00,,OVC060,0.28,VWS V13.01,2013-04-01 20:30:00,
2013-04-01 16:35:00,40.3,12.8,29.55,North,0,0.0,0.0,32,0.00,,OVC080,0.28,VWS V13.01,2013-04-01 20:35:00,
2013-04-01 16:40:00,40.1,12.6,29.58,North,0,0.0,0.0,32,0.00,,OVC080,0.28,VWS V13.01,2013-04-01 20:40:00,
2013-04-01 16:45:00,39.9,12.5,29.58,North,0,0.0,0.0,32,0.00,,OVC080,0.28,VWS V13.01,2013-04-01 20:45:00,
2013-04-01 16:50:00,40.1,11.9,29.58,North,0,0.0,0.0,31,0.00,,OVC080,0.28,VWS V13.01,2013-04-01 20:50:00,
2013-04-01 16:55:00,40.1,11.9,29.55,North,0,0.0,0.0,31,0.00,,OVC070,0.28,VWS V13.01,2013-04-01 20:55:00,
2013-04-01 17:00:00,39.7,10.9,29.55,North,0,0.0,0.0,30,0.00,,OVC070,0.28,VWS V13.01,2013-04-01 21:00:00,
2013-04-01 17:05:00,39.2,10.4,29.55,North,0,0.0,0.0,30,0.00,,OVC070,0.28,VWS V13.01,2013-04-01 21:05:00,
2013-04-01 17:10:00,39.0,11.0,29.58,North,0,0.0,0.0,31,0.00,,OVC070,0.28,VWS V13.01,2013-04-01 21:10:00,
2013-04-01 17:15:00,39.2,10.4,29.58,North,0,0.0,0.0,30,0.00,,OVC070,0.28,VWS V13.01,2013-04-01 21:15:00,
2013-04-01 17:20:00,38.8,10.8,29.58,North,0,0.0,0.0,31,0.00,,OVC070,0.28,VWS V13.01,2013-04-01 21:20:00,
2013-04-01 17:25:00,38.7,10.6,29.58,North,0,0.0,0.0,31,0.00,,OVC070,0.28,VWS V13.01,2013-04-01 21:25:00,
2013-04-01 17:30:00,38.7,10.6,29.58,North,0,0.0,0.0,31,0.00,,OVC070,0.28,VWS V13.01,2013-04-01 21:30:00,
2013-04-01 17:35:00,39.4,10.5,29.58,North,0,0.0,0.0,30,0.00,,OVC065,0.28,VWS V13.01,2013-04-01 21:35:00,
2013-04-01 17:40:00,39.7,10.9,29.58,North,0,0.0,0.0,30,0.00,,OVC065,0.28,VWS V13.01,2013-04-01 21:40:00,
2013-04-01 17:45:00,40.3,10.6,29.58,North,0,0.0,0.0,29,0.00,,OVC065,0.28,VWS V13.01,2013-04-01 21:45:00,
2013-04-01 17:50:00,40.5,10.7,29.58,North,0,0.0,0.0,29,0.00,,OVC065,0.28,VWS V13.01,2013-04-01 21:50:00,
2013-04-01 17:55:00,39.4,9.8,29.58,North,0,0.0,0.0,29,0.00,,OVC065,0.28,VWS V13.01,2013-04-01 21:55:00,
2013-04-01 18:00:00,38.7,9.2,29.58,North,0,0.0,0.0,29,0.00,,OVC065,0.28,VWS V13.01,2013-04-01 22:00:00,
2013-04-01 18:05:00,37.9,8.5,29.58,North,0,0.0,0.0,29,0.00,,OVC065,0.28,VWS V13.01,2013-04-01 22:05:00,
2013-04-01 18:10:00,38.1,8.7,29.61,North,0,0.0,0.0,29,0.00,,OVC065,0.28,VWS V13.01,2013-04-01 22:10:00,
2013-04-01 18:15:00,38.7,6.7,29.61,North,0,0.0,0.0,26,0.00,,OVC065,0.28,VWS V13.01,2013-04-01 22:15:00,
2013-04-01 18:20:00,39.0,7.1,29.61,North,0,0.0,0.0,26,0.00,,OVC065,0.28,VWS V13.01,2013-04-01 22:20:00,
2013-04-01 18:25:00,39.4,7.4,29.61,North,0,0.0,0.0,26,0.00,,OVC065,0.28,VWS V13.01,2013-04-01 22:25:00,
2013-04-01 18:30:00,39.6,7.5,29.61,North,0,0.0,0.0,26,0.00,,OVC065,0.28,VWS V13.01,2013-04-01 22:30:00,
2013-04-01 18:35:00,39.2,7.2,29.61,North,0,0.0,0.0,26,0.00,,SCT075,0.28,VWS V13.01,2013-04-01 22:35:00,
2013-04-01 18:40:00,38.7,6.7,29.61,North,0,0.0,0.0,26,0.00,,SCT075,0.28,VWS V13.01,2013-04-01 22:40:00,
2013-04-01 18:45:00,38.3,4.7,29.61,North,0,0.0,0.0,24,0.00,,SCT075,0.28,VWS V13.01,2013-04-01 22:45:00,
2013-04-01 18:50:00,38.1,4.5,29.61,North,0,0.0,0.0,24,0.00,,SCT075,0.28,VWS V13.01,2013-04-01 22:50:00,
2013-04-01 18:55:00,37.4,3.9,29.61,North,0,0.0,0.0,24,0.00,,BKN095,0.28,VWS V13.01,2013-04-01 22:55:00,
2013-04-01 19:00:00,36.9,3.5,29.61,North,0,0.0,0.0,24,0.00,,BKN095,0.28,VWS V13.01,2013-04-01 23:00:00,
2013-04-01 19:05:00,36.5,3.2,29.61,North,0,0.0,0.0,24,0.00,,BKN095,0.28,VWS V13.01,2013-04-01 23:05:00,
2013-04-01 19:10:00,36.3,3.0,29.64,North,0,0.0,0.0,24,0.00,,BKN095,0.28,VWS V13.01,2013-04-01 23:10:00,
2013-04-01 19:15:00,35.6,2.4,29.64,North,0,0.0,0.0,24,0.00,,BKN095,0.28,VWS V13.01,2013-04-01 23:15:00,
2013-04-01 19:20:00,35.4,3.1,29.64,North,0,0.0,0.0,25,0.00,,BKN095,0.28,VWS V13.01,2013-04-01 23:20:00,
2013-04-01 19:25:00,35.2,3.0,29.64,North,0,0.0,0.0,25,0.00,,BKN095,0.28,VWS V13.01,2013-04-01 23:25:00,
2013-04-01 19:31:00,35.1,2.8,29.64,North,0,0.0,0.0,25,0.00,,BKN095,0.28,VWS V13.01,2013-04-01 23:31:00,
2013-04-01 19:36:00,34.9,2.6,29.64,North,0,0.0,0.0,25,0.00,,BKN095,0.28,VWS V13.01,2013-04-01 23:36:00,
2013-04-01 19:41:00,34.9,2.6,29.64,North,0,0.0,0.0,25,0.00,,BKN095,0.28,VWS V13.01,2013-04-01 23:41:00,
2013-04-01 19:46:00,34.5,2.3,29.64,North,0,0.0,0.0,25,0.00,,BKN095,0.28,VWS V13.01,2013-04-01 23:46:00,
2013-04-01 19:51:00,34.5,2.3,29.64,North,0,0.0,0.0,25,0.00,,FEW060,0.28,VWS V13.01,2013-04-01 23:51:00,
2013-04-01 19:56:00,34.5,2.3,29.64,North,0,0.0,0.0,25,0.00,,FEW060,0.28,VWS V13.01,2013-04-01 23:56:00,
2013-04-01 20:02:00,34.3,2.2,29.64,North,0,0.0,0.0,25,0.00,,FEW060,0.28,VWS V13.01,2013-04-02 00:02:00,
2013-04-01 20:07:00,34.2,2.0,29.64,North,0,0.0,0.0,25,0.00,,FEW060,0.28,VWS V13.01,2013-04-02 00:07:00,
2013-04-01 20:12:00,34.0,1.9,29.67,North,0,0.0,0.0,25,0.00,,FEW060,0.28,VWS V13.01,2013-04-02 00:12:00,
2013-04-01 20:17:00,33.8,1.7,29.67,North,0,0.0,0.0,25,0.00,,FEW060,0.28,VWS V13.01,2013-04-02 00:17:00,
2013-04-01 20:22:00,33.6,1.6,29.67,North,0,0.0,0.0,25,0.00,,FEW060,0.28,VWS V13.01,2013-04-02 00:22:00,
2013-04-01 20:27:00,33.3,1.2,29.67,North,0,0.0,0.0,25,0.00,,FEW060,0.28,VWS V13.01,2013-04-02 00:27:00,
2013-04-01 20:32:00,32.9,0.9,29.67,North,0,0.0,0.0,25,0.00,,CLR,0.28,VWS V13.01,2013-04-02 00:32:00,
2013-04-01 20:37:00,32.7,0.8,29.67,North,0,0.0,0.0,25,0.00,,CLR,0.28,VWS V13.01,2013-04-02 00:37:00,
2013-04-01 20:42:00,32.7,0.8,29.67,North,0,0.0,0.0,25,0.00,,CLR,0.28,VWS V13.01,2013-04-02 00:42:00,
2013-04-01 20:47:00,32.7,0.8,29.67,North,0,0.0,0.0,25,0.00,,CLR,0.28,VWS V13.01,2013-04-02 00:47:00,
2013-04-01 20:52:00,32.9,0.9,29.67,North,0,0.0,0.0,25,0.00,,CLR,0.28,VWS V13.01,2013-04-02 00:52:00,
2013-04-01 20:57:00,32.9,0.9,29.67,North,0,0.0,0.0,25,0.00,,CLR,0.28,VWS V13.01,2013-04-02 00:57:00,
2013-04-01 21:02:00,32.7,0.8,29.67,North,0,0.0,0.0,25,0.00,,CLR,0.28,VWS V13.01,2013-04-02 01:02:00,
2013-04-01 21:07:00,32.5,0.6,29.67,North,0,0.0,0.0,25,0.00,,CLR,0.28,VWS V13.01,2013-04-02 01:07:00,
2013-04-01 21:12:00,32.5,0.6,29.67,North,0,0.0,0.0,25,0.00,,CLR,0.28,VWS V13.01,2013-04-02 01:12:00,
2013-04-01 21:17:00,32.4,0.5,29.67,North,0,0.0,0.0,25,0.00,,CLR,0.28,VWS V13.01,2013-04-02 01:17:00,
2013-04-01 21:23:00,32.2,0.3,29.67,North,0,0.0,0.0,25,0.00,,CLR,0.28,VWS V13.01,2013-04-02 01:23:00,
2013-04-01 21:28:00,32.0,0.2,29.70,North,0,0.0,0.0,25,0.00,,CLR,0.28,VWS V13.01,2013-04-02 01:28:00,
2013-04-01 21:33:00,31.8,0.0,29.70,North,0,0.0,0.0,25,0.00,,CLR,0.28,VWS V13.01,2013-04-02 01:33:00,
2013-04-01 21:38:00,31.6,-0.1,29.70,North,0,0.0,0.0,25,0.00,,CLR,0.28,VWS V13.01,2013-04-02 01:38:00,
2013-04-01 21:43:00,31.3,-0.4,29.70,North,0,0.0,0.0,25,0.00,,CLR,0.28,VWS V13.01,2013-04-02 01:43:00,
2013-04-01 21:48:00,31.1,-0.6,29.70,North,0,0.0,0.0,25,0.00,,CLR,0.28,VWS V13.01,2013-04-02 01:48:00,
2013-04-01 21:53:00,31.1,-0.6,29.70,North,0,0.0,0.0,25,0.00,,CLR,0.28,VWS V13.01,2013-04-02 01:53:00,
2013-04-01 21:58:00,30.9,-0.8,29.70,North,0,0.0,0.0,25,0.00,,CLR,0.28,VWS V13.01,2013-04-02 01:58:00,
2013-04-01 22:04:00,30.7,-0.9,29.70,North,0,0.0,0.0,25,0.00,,CLR,0.28,VWS V13.01,2013-04-02 02:04:00,
2013-04-01 22:09:00,30.6,-1.1,29.73,North,0,0.0,0.0,25,0.00,,CLR,0.28,VWS V13.01,2013-04-02 02:09:00,
2013-04-01 22:14:00,30.4,-1.2,29.73,North,0,0.0,0.0,25,0.00,,CLR,0.28,VWS V13.01,2013-04-02 02:14:00,
2013-04-01 22:19:00,30.2,-1.4,29.73,North,0,0.0,0.0,25,0.00,,CLR,0.28,VWS V13.01,2013-04-02 02:19:00,
2013-04-01 22:24:00,30.2,-1.4,29.73,North,0,0.0,0.0,25,0.00,,CLR,0.28,VWS V13.01,2013-04-02 02:24:00,
2013-04-01 22:29:00,30.0,-1.5,29.73,North,0,0.0,0.0,25,0.00,,CLR,0.28,VWS V13.01,2013-04-02 02:29:00,
2013-04-01 22:34:00,30.0,-1.5,29.73,North,0,0.0,0.0,25,0.00,,CLR,0.28,VWS V13.01,2013-04-02 02:34:00,
2013-04-01 22:39:00,29.8,-1.7,29.73,North,0,0.0,0.0,25,0.00,,CLR,0.28,VWS V13.01,2013-04-02 02:39:00,
2013-04-01 22:44:00,29.8,-1.7,29.73,North,0,0.0,0.0,25,0.00,,CLR,0.28,VWS V13.01,2013-04-02 02:44:00,
2013-04-01 22:49:00,29.8,-1.7,29.73,North,0,0.0,0.0,25,0.00,,CLR,0.28,VWS V13.01,2013-04-02 02:49:00,
2013-04-01 22:54:00,29.7,-1.8,29.73,North,0,0.0,0.0,25,0.00,,CLR,0.28,VWS V13.01,2013-04-02 02:54:00,
2013-04-01 22:59:00,29.5,0.4,29.73,North,0,0.0,0.0,28,0.00,,CLR,0.28,VWS V13.01,2013-04-02 02:59:00,
2013-04-01 23:04:00,29.5,0.4,29.73,North,0,0.0,0.0,28,0.00,,CLR,0.28,VWS V13.01,2013-04-02 03:04:00,
2013-04-01 23:09:00,29.5,0.4,29.73,North,0,0.0,0.0,28,0.00,,CLR,0.28,VWS V13.01,2013-04-02 03:09:00,
2013-04-01 23:14:00,29.5,0.4,29.73,North,0,0.0,0.0,28,0.00,,OVC055,0.28,VWS V13.01,2013-04-02 03:14:00,
2013-04-01 23:19:00,29.5,0.4,29.73,North,0,0.0,0.0,28,0.00,,OVC055,0.28,VWS V13.01,2013-04-02 03:19:00,
2013-04-01 23:24:00,29.3,0.2,29.73,North,0,0.0,0.0,28,0.00,,OVC055,0.28,VWS V13.01,2013-04-02 03:24:00,
2013-04-01 23:29:00,29.3,0.2,29.73,North,0,0.0,0.0,28,0.00,,OVC055,0.28,VWS V13.01,2013-04-02 03:29:00,
2013-04-01 23:34:00,29.1,0.1,29.73,North,0,0.0,0.0,28,0.00,,CLR,0.28,VWS V13.01,2013-04-02 03:34:00,
2013-04-01 23:39:00,29.1,0.1,29.73,North,0,0.0,0.0,28,0.00,,CLR,0.28,VWS V13.01,2013-04-02 03:39:00,
2013-04-01 23:44:00,28.9,-0.1,29.73,North,0,0.0,0.0,28,0.00,,CLR,0.28,VWS V13.01,2013-04-02 03:44:00,
2013-04-01 23:50:00,28.8,-0.2,29.73,North,0,0.0,0.0,28,0.00,,CLR,0.28,VWS V13.01,2013-04-02 03:50:00,
2013-04-01 23:55:00,28.6,-0.4,29.73,North,0,0.0,0.0,28,0.00,,CLR,0.28,VWS V13.01,2013-04-02 03:55:00,